[[{"header":{"parameterUnit":"m.s-1","parameterCategory":1,"la1":30.2991,"la2":30.254,"lo1":-89.0895,"lo2":-89.0444,"dy":0.0017,"dx":0.0017,"nx":28,"ny":28,"refTime":"2024-05-02T21:00:00:Z","depth":0,"parameterNumber":2,"parameterNumberName":"U-component_of_WINDS"},"data":[0,0,0,0,0,0,0,0,0,0,0,0,0,0,0,0,0,0,0,0,0,0,0,0,0,0,0,0,0,0,0,0,0,0,0,0,0,0,0,0,0,0,0,0,0,0,0,0,0,0,0,0,0,0,0,0,0,0,-1.8809,-1.8809,0,-1.8769,-1.8768,-1.8768,-1.8713,-1.8712,-1.8711,-1.871,-1.8669,-1.8668,-1.8668,0,0,0,0,0,0,0,0,0,0,0,0,0,-1.8839,-1.8839,-1.8809,-1.8809,-1.8808,-1.8769,-1.8768,-1.8768,-1.8713,-1.8712,-1.8711,-1.871,-1.8669,-1.8668,-1.8668,0,0,0,0,0,0,0,0,0,0,0,0,0,-1.8815,-1.8839,-1.8809,-1.8776,-1.8773,-1.8769,-1.8768,-1.8767,-1.8714,-1.8712,-1.8711,-1.871,-1.8669,-1.8668,-1.8668,-1.8693,0,0,-1.8667,-1.8667,0,0,0,0,0,0,0,0,-1.8817,-1.8814,-1.8782,-1.8779,-1.8775,-1.8745,-1.8763,-1.8742,-1.8714,-1.8736,-1.871,-1.8709,-1.8695,-1.8692,-1.8688,-1.8691,-1.8689,-1.8667,-1.8666,-1.8666,-1.8666,0,0,0,0,0,0,0,-1.8818,-1.8815,-1.8793,-1.8781,-1.8777,-1.8763,-1.8758,-1.8759,-1.8724,-1.8734,-1.873,-1.8726,-1.8693,-1.8688,-1.8686,-1.8688,-1.8667,-1.8666,-1.8666,-1.8666,-1.8709,-1.871,0,0,0,0,0,0,-1.8825,-1.8817,-1.8794,-1.8792,-1.8793,-1.8764,-1.8758,-1.8756,-1.8723,-1.8717,-1.8727,-1.8724,-1.869,-1.8687,-1.8685,-1.8711,-1.8666,-1.8666,-1.8666,-1.8708,-1.8709,-1.8711,0,0,0,0,0,0,-1.8826,-1.8823,-1.8796,-1.8803,-1.8799,-1.8765,-1.8762,-1.8756,-1.8751,-1.8718,-1.8712,-1.8729,-1.8688,-1.8685,-1.8691,-1.8709,-1.8666,-1.8665,-1.8706,-1.8708,-1.871,-1.8764,0,0,0,0,0,0,-1.8827,-1.8824,-1.8833,-1.8804,-1.8799,-1.8803,-1.8763,-1.8756,-1.875,-1.8745,-1.8718,-1.8712,-1.8687,-1.8692,-1.8691,-1.8707,-1.8665,-1.8704,-1.8707,-1.8709,-1.8761,-1.8768,-1.8774,0,0,0,0,0,-1.8828,-1.885,-1.8834,-1.8831,-1.881,-1.8805,-1.8801,-1.8772,-1.8752,-1.8761,-1.874,-1.8713,-1.8707,-1.8693,-1.8691,-1.8708,-1.8703,-1.8706,-1.8709,-1.8758,-1.8766,-1.8774,0,0,0,0,0,0,-1.8882,-1.8846,-1.8827,-1.8841,-1.8826,-1.8795,-1.8806,-1.8782,-1.8773,-1.8769,-1.8732,-1.8727,-1.8737,-1.8723,-1.8708,-1.873,-1.8701,-1.8704,-1.8739,-1.8747,-1.8753,-1.8756,-1.8665,0,0,0,0,0,-1.8896,-1.8895,-1.8863,-1.8878,-1.8871,-1.884,-1.8837,-1.8815,-1.8799,-1.8792,-1.8772,-1.8756,-1.8751,-1.8748,-1.8741,-1.8759,-1.8752,-1.8769,-1.8776,-1.8782,-1.8784,-1.8792,-1.8799,-1.8721,-1.8721,-1.8721,0,0,-1.8923,-1.8903,-1.8905,-1.8888,-1.8874,-1.8874,-1.8835,-1.8837,-1.8836,-1.8792,-1.8796,-1.8781,-1.8761,-1.8773,-1.8777,-1.8762,-1.8805,-1.8786,-1.879,-1.879,-1.8796,-1.8803,-1.881,-1.8723,-1.8723,-1.8722,0,0,-1.8974,-1.8959,-1.8969,-1.8956,-1.8936,-1.8915,-1.8917,-1.889,-1.8878,-1.8882,-1.8849,-1.8848,-1.8839,-1.8826,-1.8819,-1.8865,-1.884,-1.8864,-1.8898,-1.8906,-1.8912,-1.8918,-1.8933,-1.894,-1.8867,-1.8867,-1.8867,0,-1.901,-1.9009,-1.8977,-1.8981,-1.8974,-1.8935,-1.8945,-1.8934,-1.8912,-1.8909,-1.8892,-1.888,-1.8864,-1.8872,-1.8883,-1.8879,-1.888,-1.8866,-1.8914,-1.8919,-1.8923,-1.8938,-1.8944,-1.887,-1.8869,-1.8869,-1.8869,0,-1.9055,-1.9055,-1.9065,-1.9046,-1.904,-1.9047,-1.9016,-1.9015,-1.8994,-1.8975,-1.8979,-1.8958,-1.8947,-1.8947,-1.8927,-1.8952,-1.8943,-1.8921,-1.8891,-1.8934,-1.8947,-1.8953,-1.8874,-1.8873,-1.8872,-1.8871,0,0,-1.9138,-1.9101,-1.9105,-1.9096,-1.907,-1.9069,-1.9074,-1.9063,-1.9062,-1.9049,-1.9051,-1.9045,-1.9024,-1.9016,-1.8994,-1.9001,-1.9038,-1.8977,-1.8976,-1.8989,-1.9064,-1.908,-1.9087,-1.9021,-1.9022,-1.9023,-1.9065,0,-1.9183,-1.9189,-1.9161,-1.9175,-1.9174,-1.9136,-1.9141,-1.9126,-1.9108,-1.9104,-1.9084,-1.908,-1.9053,-1.9048,-1.9053,-1.9032,-1.9052,-1.9029,-1.9023,-1.9023,-1.9029,-1.9094,-1.9112,-1.9153,-1.907,-1.9071,-1.9072,0,-1.9236,-1.9226,-1.924,-1.9213,-1.9212,-1.9216,-1.9203,-1.92,-1.9182,-1.9169,-1.916,-1.9134,-1.9137,-1.9109,-1.9112,-1.9096,-1.9092,-1.9082,-1.9083,-1.908,-1.905,-1.9093,-1.9165,-1.9171,-1.9079,-1.9079,-1.9078,0,-1.9295,-1.9284,-1.9291,-1.9284,-1.9254,-1.9257,-1.9245,-1.9226,-1.9221,-1.9209,-1.9205,-1.9195,-1.9189,-1.9181,-1.9153,-1.9135,-1.9159,-1.9129,-1.9148,-1.9148,-1.9154,-1.9154,-1.9225,-1.9152,-1.9152,-1.9152,-1.9152,0,-1.9348,-1.9358,-1.9317,-1.9321,-1.933,-1.9298,-1.9308,-1.9292,-1.9275,-1.9275,-1.9242,-1.9243,-1.9206,-1.9203,-1.9181,-1.9187,-1.9184,-1.9173,-1.9167,-1.9176,-1.9177,-1.9172,-1.9169,-1.9154,-1.9154,-1.9153,-1.9153,0,-1.9415,-1.9388,-1.9392,-1.9363,-1.9356,-1.9365,-1.934,-1.9342,-1.9322,-1.9323,-1.9321,-1.929,-1.9284,-1.9255,-1.9243,-1.9228,-1.9241,-1.923,-1.9247,-1.9243,-1.9263,-1.9262,-1.9334,-1.9341,-1.9264,-1.9265,-1.9266,0,-1.945,-1.9457,-1.9428,-1.9426,-1.9415,-1.9412,-1.9406,-1.9375,-1.937,-1.935,-1.9355,-1.9347,-1.9338,-1.9331,-1.9307,-1.9297,-1.9284,-1.931,-1.9283,-1.9291,-1.9284,-1.9284,-1.9284,-1.9316,-1.9317,-1.9318,-1.9319,0,-1.9515,-1.9502,-1.9495,-1.9484,-1.9479,-1.9469,-1.9456,-1.9456,-1.9421,-1.9418,-1.9411,-1.9405,-1.9392,-1.9384,-1.937,-1.9357,-1.9332,-1.9328,-1.9331,-1.934,-1.935,-1.9344,-1.9263,-1.9326,-1.9325,-1.9325,-1.9324,-1.9324,-1.9567,-1.9571,-1.9552,-1.9546,-1.9533,-1.9522,-1.9523,-1.9503,-1.9498,-1.9485,-1.9466,-1.9463,-1.9444,-1.9423,-1.9412,-1.9408,-1.9394,-1.9399,-1.94,-1.9402,-1.9406,-1.9351,-1.9405,-1.9405,-1.9405,-1.9405,-1.9404,0,-1.963,-1.9616,-1.9611,-1.9595,-1.959,-1.9567,-1.9552,-1.955,-1.9547,-1.9532,-1.9524,-1.9517,-1.9509,-1.9484,-1.9474,-1.9475,-1.9464,-1.9474,-1.9473,-1.947,-1.942,-1.9418,-1.9483,-1.9483,-1.9483,-1.9483,-1.9483,-1.9483,-1.9663,-1.9668,-1.9652,-1.9651,-1.9636,-1.9633,-1.9626,-1.9616,-1.9604,-1.9597,-1.959,-1.9574,-1.9555,-1.9543,-1.9534,-1.9527,-1.9525,-1.9539,-1.9528,-1.9481,-1.9474,-1.9467,-1.9464,-1.9538,-1.9539,-1.9578,-1.9578,-1.9579]},{"header":{"parameterUnit":"m.s-1","parameterCategory":1,"la1":30.2991,"la2":30.254,"lo1":-89.0895,"lo2":-89.0444,"dy":0.0017,"dx":0.0017,"nx":28,"ny":28,"refTime":"2024-05-02T21:00:00:Z","depth":0,"parameterNumber":3,"parameterNumberName":"V-component_of_WINDS"},"data":[0,0,0,0,0,0,0,0,0,0,0,0,0,0,0,0,0,0,0,0,0,0,0,0,0,0,0,0,0,0,0,0,0,0,0,0,0,0,0,0,0,0,0,0,0,0,0,0,0,0,0,0,0,0,0,0,0,0,0.6332,0.6331,0,0.6308,0.6308,0.6308,0.6287,0.6287,0.6286,0.6286,0.626,0.626,0.6259,0,0,0,0,0,0,0,0,0,0,0,0,0,0.6357,0.6357,0.6332,0.6331,0.6331,0.6308,0.6308,0.6307,0.6287,0.6287,0.6286,0.6286,0.626,0.626,0.6259,0,0,0,0,0,0,0,0,0,0,0,0,0,0.6341,0.6357,0.6332,0.6318,0.6317,0.6308,0.6308,0.6307,0.6287,0.6287,0.6286,0.6286,0.626,0.626,0.6259,0.6262,0,0,0.6257,0.6257,0,0,0,0,0,0,0,0,0.6342,0.634,0.632,0.6319,0.6317,0.63,0.6307,0.6292,0.6287,0.6298,0.6286,0.6286,0.6274,0.6272,0.6268,0.626,0.6259,0.6257,0.6256,0.6256,0.6256,0,0,0,0,0,0,0,0.6343,0.6341,0.6322,0.632,0.6318,0.6313,0.631,0.6304,0.6288,0.6297,0.6296,0.6293,0.6273,0.6269,0.6267,0.6259,0.6257,0.6256,0.6256,0.6255,0.6253,0.6253,0,0,0,0,0,0,0.6347,0.6342,0.6323,0.6321,0.6329,0.6313,0.631,0.6306,0.6288,0.6285,0.6294,0.6292,0.627,0.6268,0.6266,0.6268,0.6256,0.6255,0.6255,0.6253,0.6253,0.6254,0,0,0,0,0,0,0.6347,0.6345,0.6324,0.6331,0.6328,0.6312,0.6309,0.6306,0.6302,0.6285,0.6282,0.6293,0.627,0.6267,0.6263,0.6267,0.6255,0.6254,0.6252,0.6253,0.6253,0.6273,0,0,0,0,0,0,0.6348,0.6346,0.6347,0.6332,0.6328,0.6322,0.6309,0.6305,0.6301,0.6299,0.6284,0.6281,0.6269,0.6264,0.6263,0.6266,0.6254,0.6252,0.6253,0.6253,0.6272,0.6274,0.6276,0,0,0,0,0,0.6349,0.6352,0.6347,0.6344,0.6329,0.6322,0.632,0.6307,0.6301,0.6302,0.6292,0.6281,0.6267,0.6264,0.6262,0.6265,0.6251,0.6252,0.6253,0.6271,0.6274,0.6276,0,0,0,0,0,0,0.6367,0.635,0.6344,0.6342,0.6334,0.6318,0.6319,0.631,0.6303,0.6301,0.6285,0.6282,0.628,0.6272,0.6269,0.6267,0.6258,0.6258,0.6272,0.6275,0.6277,0.6278,0.6253,0,0,0,0,0,0.6371,0.6367,0.6352,0.6352,0.6349,0.6335,0.6331,0.6322,0.6313,0.6309,0.6298,0.6289,0.6282,0.6278,0.6271,0.6271,0.6267,0.6272,0.6274,0.6276,0.6276,0.6276,0.6278,0.6256,0.6256,0.6256,0,0,0.6379,0.6369,0.6367,0.6356,0.6348,0.6344,0.6332,0.6328,0.6325,0.6308,0.6304,0.6296,0.6284,0.6282,0.6281,0.6276,0.6282,0.6277,0.6279,0.6278,0.6277,0.6279,0.6281,0.6257,0.6257,0.6257,0,0,0.6391,0.6383,0.6382,0.6376,0.6365,0.6356,0.6356,0.6342,0.6336,0.6332,0.632,0.6316,0.6305,0.6297,0.6292,0.6303,0.6293,0.6301,0.6312,0.6312,0.6314,0.6315,0.6319,0.6321,0.6302,0.6302,0.6302,0,0.6401,0.6395,0.6383,0.638,0.6376,0.6362,0.6361,0.6355,0.6342,0.6339,0.6334,0.6321,0.6312,0.6308,0.6311,0.6307,0.6307,0.6302,0.6314,0.6316,0.6317,0.632,0.6322,0.6303,0.6303,0.6303,0.6303,0,0.6409,0.6405,0.6406,0.6395,0.6391,0.6389,0.6377,0.6374,0.6366,0.6357,0.6353,0.6343,0.6334,0.6332,0.6324,0.6328,0.6325,0.6317,0.6308,0.632,0.6323,0.6325,0.6304,0.6304,0.6304,0.6303,0,0,0.643,0.6414,0.6414,0.641,0.6397,0.6394,0.6392,0.6384,0.6382,0.6374,0.6372,0.6364,0.6357,0.6351,0.6342,0.6342,0.6352,0.6334,0.6334,0.6338,0.6356,0.6362,0.6363,0.6346,0.6346,0.6346,0.6357,0,0.644,0.6436,0.6426,0.6425,0.6421,0.6408,0.6407,0.6399,0.6391,0.6387,0.6378,0.6373,0.6364,0.6361,0.6361,0.6351,0.6355,0.635,0.6343,0.6343,0.6346,0.6365,0.6371,0.6381,0.6358,0.6358,0.6358,0,0.6451,0.6445,0.6444,0.6433,0.6431,0.6429,0.6422,0.6418,0.6409,0.6404,0.6398,0.6388,0.6386,0.6377,0.6373,0.637,0.6367,0.6362,0.6362,0.636,0.6351,0.6364,0.6384,0.6386,0.636,0.636,0.636,0,0.6466,0.6458,0.6456,0.6453,0.644,0.6439,0.6434,0.6425,0.6421,0.6414,0.6412,0.6405,0.6401,0.6396,0.6384,0.6379,0.6382,0.6372,0.6377,0.6377,0.6377,0.6377,0.6397,0.6376,0.6376,0.6376,0.6376,0,0.6478,0.6478,0.6463,0.6462,0.6462,0.645,0.645,0.6443,0.6436,0.6433,0.6422,0.6419,0.6405,0.6401,0.6392,0.6391,0.6389,0.6384,0.6382,0.6385,0.6385,0.6382,0.6381,0.6376,0.6376,0.6376,0.6376,0,0.6495,0.6485,0.6483,0.6471,0.6469,0.6469,0.6459,0.6457,0.645,0.6447,0.6445,0.6433,0.6428,0.6416,0.6408,0.6402,0.6402,0.6398,0.6406,0.6404,0.6409,0.6409,0.6427,0.6429,0.6407,0.6407,0.6407,0,0.6503,0.6503,0.6492,0.6489,0.6485,0.6481,0.6478,0.6467,0.6463,0.6454,0.6454,0.6448,0.6443,0.6436,0.6426,0.6419,0.6415,0.6422,0.6414,0.6417,0.6415,0.6415,0.6415,0.6423,0.6424,0.6424,0.6424,0,0.6518,0.6514,0.6509,0.6504,0.65,0.6495,0.6489,0.6488,0.6476,0.6473,0.6468,0.6464,0.6456,0.6451,0.6443,0.6437,0.6429,0.6427,0.6428,0.643,0.6435,0.6432,0.641,0.6426,0.6426,0.6426,0.6426,0.6426,0.653,0.653,0.6522,0.6518,0.6513,0.6508,0.6507,0.6499,0.6495,0.6489,0.6482,0.6478,0.647,0.646,0.6454,0.6451,0.6446,0.6447,0.6448,0.6448,0.6449,0.6436,0.645,0.645,0.6449,0.6449,0.6449,0,0.6545,0.654,0.6536,0.6529,0.6526,0.6519,0.6513,0.6511,0.6507,0.6501,0.6497,0.6492,0.6487,0.6477,0.6471,0.647,0.6466,0.6469,0.6469,0.6468,0.6454,0.6454,0.6473,0.6473,0.6473,0.6473,0.6473,0.6473,0.6552,0.6551,0.6546,0.6542,0.6537,0.6534,0.6531,0.6526,0.6521,0.6516,0.6512,0.6507,0.6499,0.6493,0.6488,0.6485,0.6483,0.6488,0.6484,0.6471,0.6468,0.6466,0.6466,0.6487,0.6487,0.6498,0.6498,0.6498]}]]